Regional Weather Roundup
Issued by NWS Sterling, VA

Home | Current Version | Previous Version | Graphics & Text | Print | Product List | Glossary On
Versions: 1 2 3 4 5 6 7 8 9 10 11 12 13 14 15 16 17 18 19 20 21 22 23 24 25 26 27
000
ASUS41 KLWX 251010
RWRLWX

REGIONAL WEATHER ROUNDUP
NATIONAL WEATHER SERVICE BALTIMORE MD/WASHINGTON DC
600 AM EDT SAT OCT 25 2014

Note: "FAIR" indicates few or no clouds below 12,000 feet
with no significant weather and/or obstructions to visibility.
 TC=TEMPERATURE CELSIUS

 * =Non NWS site. Station does not report precipitation (e.g. rain,
    snow, etc.), thunder, or fog.

DCZ001-MDZ009-015-VAZ040>042-051-053>054-251100-
WASHINGTON METRO

CITY           SKY/WX    TMP DP  RH WIND       PRES   REMARKS
WASHINGTON NAT CLEAR     51  38  60 N3        29.96S
DULLES         CLEAR     50  39  66 NW7       29.96S
ANDREWS AFB    CLEAR     42  38  87 S2        29.95R
FT BELVOIR     CLEAR     38  37  96 CALM      29.96R
QUANTICO       CLEAR     43  39  86 NW7       29.98R
COLLEGE PARK*  CLEAR     43  41  93 CALM      29.95R
LEESBURG*      CLEAR     54  43  66 NW9       29.97R
MANASSAS*      CLEAR     36  36 100 SE3       29.97R
GAITHERSBURG*  CLEAR     41  36  81 CALM      29.99S

$$

MDZ006>007-011-014-251100-
BALTIMORE METRO

CITY           SKY/WX    TMP DP  RH WIND       PRES   REMARKS
BWI AIRPORT    CLEAR     46  38  73 CALM      29.94S
MD SCIENCE CTR   N/A     51  38  60 MISG      29.94R
MARTIN STATE   CLEAR     45  43  93 CALM      29.95S
ANNAPOLIS      CLEAR     49  39  68 CALM      29.94S
FORT MEADE*    CLEAR     36  36 100 CALM      29.97S

$$

MDZ012-015-019>023-251100-
MARYLAND EASTERN SHORE

CITY           SKY/WX    TMP DP  RH WIND       PRES   REMARKS
OCEAN CITY     CLEAR     48  40  73 NW8       29.92R
SALISBURY      CLEAR     46  39  76 CALM      29.94R
BAY BRIDGE AP*   N/A     52  39  62 NW5       29.95R
CAMBRIDGE*     CLEAR     52  41  66 CALM      29.94R
EASTON*        CLEAR     49  44  84 CALM      29.97S

$$

MDZ017>025-251100-
SOUTHERN MARYLAND

CITY           SKY/WX    TMP DP  RH WIND       PRES   REMARKS
PATUXENT RIVER CLEAR     49  41  74 W3        29.95S
ST INIGOES     CLEAR     50  37  61 CALM      29.95R
LEONARDTOWN*   CLEAR     39  36  87 CALM      29.97R

$$

MDZ003>005-251100-
NORTH CENTRAL MARYLAND

CITY           SKY/WX    TMP DP  RH WIND       PRES   REMARKS
FREDERICK*     FLURRIES  52  39  62 S7        29.98S
HAGERSTOWN APT CLEAR     52  38  58 SW7       29.95S
WESTMINSTER*   CLEAR     50  37  62 W3        29.94S

$$

MDZ501>502-251100-
WESTERN MARYLAND

CITY           SKY/WX    TMP DP  RH WIND       PRES   REMARKS
OAKLAND*       MOCLDY    45  39  81 SW10      29.98F
CUMBERLAND*    CLEAR     37  37 100 CALM      30.02S

$$

VAZ025>031-251100-
SHENANDOAH VALLEY

CITY           SKY/WX    TMP DP  RH WIND       PRES   REMARKS
WINCHESTER*    CLEAR     43  32  65 CALM      29.98R
FRONT ROYAL*   FAIR      41  36  81 S7        29.97R
LURAY*         FAIR      37  37 100 SE5       30.01R
NEW MARKET*    FAIR      33  32  97 CALM      30.00R
STAUNTON*      CLEAR     32  29  90 CALM      30.03S
WAYNESBORO*    FAIR      33  32  94 CALM      30.01R

$$

WVZ021-048>050-054>055-251100-
EASTERN WEST VIRGINIA PANHANDLE

CITY           SKY/WX    TMP DP  RH WIND       PRES   REMARKS
MARTINSBURG    CLEAR     44  36  73 SW5       29.97R
PETERSBURG*    PTCLDY    32  31  95 CALM      30.01F

$$

VAZ036>039-050-251100-
CENTRAL FOOTHILLS

CITY           SKY/WX    TMP DP  RH WIND       PRES   REMARKS
CHARLOTTESVILL CLEAR     45  34  65 W5        29.98R
CULPEPER*      CLEAR     34  34 100 CALM      29.98S
ORANGE*        CLEAR     36  34  93 CALM      29.99S
GORDONSVILLE*  FAIR      34  33  96 CALM      29.97S
WARRENTON*     FAIR      33  33 100 CALM      29.96S

$$

VAZ055>057-251100-
NORTH AND CENTRAL PIEDMONT

CITY           SKY/WX    TMP DP  RH WIND       PRES   REMARKS
FREDERICKSBRG* CLEAR     37  37 100 CALM      29.97R
STAFFORD*      CLEAR    N/A N/A N/A CALM      30.01R HAZE

$$

NCZ024-NYZ072-PAZ021-071-VAZ022-071-251100-
OTHER REGIONAL OBSERVATIONS

CITY           SKY/WX    TMP DP  RH WIND       PRES   REMARKS
NEW YORK CITY  CLEAR     51  36  56 W7        29.90R
PHILADELPHIA   CLEAR     49  36  61 W6        29.92S
PITTSBURGH     PTCLDY    47  39  74 SW3       29.96S
ROANOKE        CLEAR     46  37  71 N3        30.05R
RICHMOND       CLEAR     43  39  86 CALM      29.97S
RALEIGH        CLEAR     42  39  89 CALM      29.99R

$$

ANZ530>537-251100-
MARINE OBSERVATIONS

STATION/POSITION TIME  TEMP    WIND        PRES
                       AIR SEA DIR/SP/G
                 (UTC) (F)     (DEG/KT/KT) (MB)
THOMAS PT LIGHT  1000   53 62  310/  7/  8 1015.1R
BALT KEY BRIDGE  1000   51     230/  3/  4 1013.5S
COVE POINT       1000   57     340/ 12/ 15 1013.9R
LEWISETTA        1000   55 59  310/  6/  7 1014.1R
SOLOMONS ISLAND  1000      63                N/A
PINEY POINT      1000          330/  8/  9   N/A

$$




USA.gov is the U.S. government's official web portal to all federal, state and local government web resources and services.